TimeCST,TemperatureF,Dew PointF,Humidity,Sea Level PressureIn,VisibilityMPH,Wind Direction,Wind SpeedMPH,Gust SpeedMPH,PrecipitationIn,Events,Conditions,WindDirDegrees,DateUTC
1:53 AM,52.0,43.0,71,30.06,10.0,SSE,4.6,-,N/A,,Overcast,160,2013-03-05 07:53:00
2:53 AM,51.1,44.1,77,30.05,10.0,SE,4.6,-,N/A,,Overcast,130,2013-03-05 08:53:00
3:20 AM,51.8,44.6,76,30.05,10.0,Calm,Calm,-,N/A,,Overcast,0,2013-03-05 09:20:00
3:53 AM,53.1,45.0,74,30.04,10.0,SE,3.5,-,N/A,,Overcast,140,2013-03-05 09:53:00
4:53 AM,52.0,46.0,80,30.04,10.0,SE,4.6,-,N/A,,Overcast,130,2013-03-05 10:53:00
5:34 AM,51.8,46.4,82,30.05,9.0,SE,4.6,-,N/A,,Overcast,130,2013-03-05 11:34:00
5:53 AM,53.1,46.9,80,30.05,9.0,SE,3.5,-,N/A,,Overcast,140,2013-03-05 11:53:00
6:53 AM,54.0,48.0,80,30.05,8.0,Calm,Calm,-,N/A,,Overcast,0,2013-03-05 12:53:00
7:10 AM,53.6,48.2,82,30.06,8.0,SSE,3.5,-,N/A,,Overcast,150,2013-03-05 13:10:00
7:35 AM,55.4,48.2,77,30.05,7.0,SE,4.6,-,N/A,,Mostly Cloudy,140,2013-03-05 13:35:00
7:53 AM,55.0,48.9,80,30.04,7.0,SSE,6.9,-,N/A,,Mostly Cloudy,150,2013-03-05 13:53:00
8:53 AM,59.0,52.0,78,30.06,7.0,SSW,6.9,-,N/A,,Mostly Cloudy,210,2013-03-05 14:53:00
9:53 AM,62.1,53.1,72,30.02,8.0,SSW,9.2,-,N/A,,Overcast,200,2013-03-05 15:53:00
10:53 AM,64.0,54.0,70,30.00,9.0,SW,12.7,20.7,N/A,,Overcast,220,2013-03-05 16:53:00
11:53 AM,69.1,53.1,57,29.95,9.0,SSW,15.0,25.3,N/A,,Overcast,210,2013-03-05 17:53:00
12:53 PM,72.0,53.1,51,29.91,8.0,SW,15.0,26.5,N/A,,Mostly Cloudy,220,2013-03-05 18:53:00
1:53 PM,71.1,53.1,53,29.88,9.0,SW,17.3,31.1,N/A,,Overcast,230,2013-03-05 19:53:00
2:53 PM,73.0,53.1,49,29.85,10.0,SW,21.9,34.5,N/A,,Scattered Clouds,220,2013-03-05 20:53:00
3:49 PM,71.6,53.6,53,29.84,9.0,SW,15.0,29.9,N/A,Thunderstorm,Thunderstorm,230,2013-03-05 21:49:00
3:53 PM,71.1,53.1,53,29.85,5.0,WSW,13.8,26.5,0.01,Rain-Thunderstorm,Light Thunderstorms and Rain,240,2013-03-05 21:53:00
3:57 PM,68.0,55.4,64,29.87,1.2,WNW,17.3,25.3,0.07,Rain-Thunderstorm,Heavy Thunderstorms and Rain,290,2013-03-05 21:57:00
3:59 PM,66.2,57.2,73,29.89,0.5,West,26.5,35.7,0.12,Rain-Thunderstorm,Heavy Thunderstorms and Rain,280,2013-03-05 21:59:00
4:07 PM,62.6,59.0,88,29.89,0.5,WNW,20.7,35.7,0.18,Fog-Rain-Thunderstorm,Thunderstorms and Rain,300,2013-03-05 22:07:00
4:11 PM,62.6,57.2,82,29.90,1.2,WNW,17.3,28.8,0.18,Rain-Thunderstorm,Light Thunderstorms and Rain,300,2013-03-05 22:11:00
4:13 PM,62.6,57.2,82,29.90,2.5,WNW,18.4,28.8,0.18,Rain-Thunderstorm,Light Thunderstorms and Rain,300,2013-03-05 22:13:00
4:20 PM,62.6,57.2,82,29.90,8.0,WNW,13.8,28.8,0.18,Thunderstorm,Overcast,290,2013-03-05 22:20:00
4:28 PM,62.6,57.2,82,29.91,8.0,West,11.5,19.6,0.18,,Overcast,280,2013-03-05 22:28:00
4:53 PM,60.1,54.0,80,29.92,6.0,WNW,15.0,24.2,0.18,Rain,Light Rain,300,2013-03-05 22:53:00
5:53 PM,57.0,48.9,74,29.97,10.0,NW,15.0,24.2,0.00,,Clear,310,2013-03-05 23:53:00
6:53 PM,52.0,43.0,71,30.01,10.0,WNW,13.8,18.4,N/A,,Clear,300,2013-03-06 00:53:00
7:53 PM,46.9,37.9,71,30.06,10.0,NW,16.1,28.8,N/A,,Partly Cloudy,320,2013-03-06 01:53:00
8:53 PM,44.1,34.0,68,30.09,10.0,NW,11.5,20.7,N/A,,Clear,320,2013-03-06 02:53:00
9:53 PM,42.1,34.0,73,30.10,10.0,NW,8.1,-,N/A,,Clear,320,2013-03-06 03:53:00
10:53 PM,41.0,34.0,76,30.09,10.0,Calm,Calm,-,N/A,,Clear,0,2013-03-06 04:53:00
11:53 PM,39.0,34.0,82,30.07,10.0,Calm,Calm,-,N/A,,Clear,0,2013-03-06 05:53:00